WXM80 ListenWXM80 Stop

You find our weather info also at:

UK Metoffice

WeatherCloud

Weather Underground

Northeastern Weather Network

AWEKAS

Citizen Weather Observer Program (CWOP)

HAMweather, WeatherForYou, PWS Weather


Weather Underground History page Text

Daily Summary for September 16, 2016 Units:  English    Metric   Both
« Previous Day
Next Day »
Daily Weekly Monthly Yearly Custom
  High: Low: Average:
Temperature: 77.3 °F 54.6 °F 63.9 °F
Dew Point: 59.8 °F 52.6 °F 55.6 °F
Humidity: 96 % 51 % 76 %
Wind Speed: 6.4 mph 0.0 mph 1 mph
Wind Gust: 11.5 mph - -
Wind:- - ESE
Pressure: 30.33 in 30.23 in -
Precipitation: 0.00 in    
Historical Graphs
 
 
Tabular Data for September 16, 2016
Time Temperature Dew Point Pressure Wind Wind Speed Wind Gust Humidity Rainfall Rate (Hourly)
00:01 60.1 °F 54.6 °F 30.27 in Calm   1.2 mph 82 % 0.00 in
00:06 59.9 °F 54.7 °F 30.26 in Calm     83 % 0.00 in
00:11 59.8 °F 54.6 °F 30.27 in Calm   1.2 mph 83 % 0.00 in
00:16 59.7 °F 54.5 °F 30.27 in Calm     83 % 0.00 in
00:22 59.5 °F 54.3 °F 30.27 in Calm     83 % 0.00 in
00:27 59.4 °F 54.6 °F 30.27 in SE 0.5 mph 2.3 mph 84 % 0.00 in
00:32 59.3 °F 54.5 °F 30.27 in Calm     84 % 0.00 in
00:37 59.2 °F 54.4 °F 30.27 in Calm     84 % 0.00 in
00:42 59.1 °F 54.3 °F 30.27 in Calm     84 % 0.00 in
00:47 59.0 °F 54.2 °F 30.27 in Calm     84 % 0.00 in
00:52 58.8 °F 54.0 °F 30.27 in Calm     84 % 0.00 in
00:57 58.7 °F 54.2 °F 30.26 in Calm     85 % 0.00 in
01:02 58.6 °F 54.1 °F 30.26 in SE 0.1 mph 1.2 mph 85 % 0.00 in
01:13 58.4 °F 54.2 °F 30.26 in Calm     86 % 0.00 in
01:18 58.3 °F 54.4 °F 30.26 in Calm     87 % 0.00 in
01:23 58.2 °F 54.3 °F 30.27 in SE 0.3 mph 2.3 mph 87 % 0.00 in
01:28 58.1 °F 54.6 °F 30.27 in SE 0.7 mph 2.3 mph 88 % 0.00 in
01:33 58.1 °F 54.9 °F 30.27 in SE 0.4 mph 1.2 mph 89 % 0.00 in
01:38 58.1 °F 54.6 °F 30.27 in Calm   1.2 mph 88 % 0.00 in
01:43 58.1 °F 54.6 °F 30.27 in Calm     88 % 0.00 in
01:48 58.0 °F 54.5 °F 30.27 in SE 0.9 mph 2.3 mph 88 % 0.00 in
01:53 58.0 °F 54.5 °F 30.27 in Calm     88 % 0.00 in
01:58 57.9 °F 54.4 °F 30.27 in Calm     88 % 0.00 in
02:03 57.8 °F 54.3 °F 30.28 in Calm     88 % 0.00 in
02:09 57.8 °F 54.3 °F 30.28 in Calm     88 % 0.00 in
02:14 57.7 °F 54.2 °F 30.28 in Calm     88 % 0.00 in
02:19 57.7 °F 54.2 °F 30.27 in Calm     88 % 0.00 in
02:24 57.6 °F 54.4 °F 30.27 in Calm     89 % 0.00 in
02:29 57.5 °F 54.3 °F 30.27 in Calm     89 % 0.00 in
02:34 57.4 °F 54.2 °F 30.26 in Calm     89 % 0.00 in
02:39 57.3 °F 54.1 °F 30.26 in Calm     89 % 0.00 in
02:44 57.2 °F 54.0 °F 30.26 in Calm     89 % 0.00 in
02:49 57.1 °F 54.2 °F 30.26 in Calm     90 % 0.00 in
02:54 57.1 °F 54.2 °F 30.26 in Calm     90 % 0.00 in
03:00 56.9 °F 54.0 °F 30.26 in Calm     90 % 0.00 in
03:05 56.9 °F 54.0 °F 30.26 in Calm     90 % 0.00 in
03:10 56.8 °F 53.9 °F 30.26 in Calm     90 % 0.00 in
03:15 56.7 °F 53.8 °F 30.26 in Calm     90 % 0.00 in
03:20 56.6 °F 53.7 °F 30.26 in Calm     90 % 0.00 in
03:25 56.6 °F 53.7 °F 30.26 in Calm     90 % 0.00 in
03:30 56.5 °F 53.6 °F 30.26 in Calm     90 % 0.00 in
03:35 56.4 °F 53.5 °F 30.26 in Calm     90 % 0.00 in
03:40 56.3 °F 53.4 °F 30.26 in Calm     90 % 0.00 in
03:45 56.2 °F 53.6 °F 30.26 in Calm     91 % 0.00 in
03:51 56.2 °F 53.6 °F 30.26 in SE 0.3 mph 1.2 mph 91 % 0.00 in
03:56 56.1 °F 53.5 °F 30.26 in Calm   1.0 mph 91 % 0.00 in
04:01 56.1 °F 53.8 °F 30.26 in Calm     92 % 0.00 in
04:06 56.0 °F 53.7 °F 30.26 in Calm     92 % 0.00 in
04:11 56.0 °F 53.7 °F 30.26 in Calm     92 % 0.00 in
04:16 55.9 °F 53.6 °F 30.26 in Calm     92 % 0.00 in
04:21 55.9 °F 53.6 °F 30.26 in Calm     92 % 0.00 in
04:26 55.9 °F 53.6 °F 30.26 in Calm     92 % 0.00 in
04:31 55.8 °F 53.5 °F 30.27 in Calm     92 % 0.00 in
04:36 55.8 °F 53.5 °F 30.27 in Calm     92 % 0.00 in
04:41 55.7 °F 53.4 °F 30.27 in Calm     92 % 0.00 in
04:46 55.7 °F 53.4 °F 30.27 in Calm     92 % 0.00 in
04:51 55.7 °F 53.4 °F 30.27 in Calm     92 % 0.00 in
04:57 55.7 °F 53.4 °F 30.27 in Calm     92 % 0.00 in
05:02 55.6 °F 53.3 °F 30.27 in Calm     92 % 0.00 in
05:07 55.5 °F 53.2 °F 30.27 in Calm     92 % 0.00 in
05:12 55.4 °F 53.1 °F 30.27 in Calm     92 % 0.00 in
05:17 55.4 °F 53.1 °F 30.27 in Calm     92 % 0.00 in
05:22 55.3 °F 53.0 °F 30.27 in Calm     92 % 0.00 in
05:27 55.2 °F 52.9 °F 30.27 in Calm     92 % 0.00 in
05:32 55.2 °F 52.9 °F 30.28 in Calm     92 % 0.00 in
05:37 55.1 °F 52.8 °F 30.28 in Calm     92 % 0.00 in
05:42 55.0 °F 53.0 °F 30.28 in Calm     93 % 0.00 in
05:48 55.0 °F 53.0 °F 30.28 in Calm     93 % 0.00 in
05:53 54.9 °F 52.9 °F 30.28 in Calm     93 % 0.00 in
05:58 54.9 °F 52.9 °F 30.27 in Calm     93 % 0.00 in
06:03 54.8 °F 52.8 °F 30.27 in Calm     93 % 0.00 in
06:08 54.8 °F 52.8 °F 30.28 in Calm     93 % 0.00 in
06:13 54.7 °F 52.7 °F 30.27 in Calm     93 % 0.00 in
06:18 54.6 °F 52.6 °F 30.28 in Calm     93 % 0.00 in
06:23 54.6 °F 52.6 °F 30.28 in Calm     93 % 0.00 in
06:28 54.6 °F 52.9 °F 30.28 in Calm     94 % 0.00 in
06:33 54.6 °F 52.9 °F 30.28 in Calm     94 % 0.00 in
06:39 54.6 °F 52.9 °F 30.28 in Calm     94 % 0.00 in
06:44 54.6 °F 52.9 °F 30.28 in Calm     94 % 0.00 in
06:49 54.6 °F 52.9 °F 30.29 in Calm     94 % 0.00 in
06:54 54.7 °F 53.0 °F 30.29 in Calm     94 % 0.00 in
06:59 54.7 °F 53.0 °F 30.29 in Calm     94 % 0.00 in
07:04 54.8 °F 53.4 °F 30.29 in Calm     95 % 0.00 in
07:09 54.9 °F 53.5 °F 30.29 in Calm   1.2 mph 95 % 0.00 in
07:14 55.0 °F 53.6 °F 30.29 in Calm     95 % 0.00 in
07:19 55.1 °F 53.7 °F 30.29 in Calm   1.2 mph 95 % 0.00 in
07:24 55.5 °F 54.4 °F 30.29 in SE 0.1 mph   96 % 0.00 in
07:29 56.0 °F 54.9 °F 30.29 in SE 1.3 mph 3.5 mph 96 % 0.00 in
07:35 56.8 °F 55.4 °F 30.29 in SE 1.7 mph 3.5 mph 95 % 0.00 in
07:40 57.4 °F 55.7 °F 30.29 in SE 1.8 mph 3.0 mph 94 % 0.00 in
07:45 57.9 °F 55.9 °F 30.29 in SE 0.3 mph 2.3 mph 93 % 0.00 in
07:50 58.3 °F 56.0 °F 30.30 in Calm     92 % 0.00 in
07:55 58.5 °F 56.2 °F 30.30 in Calm   1.0 mph 92 % 0.00 in
08:00 58.6 °F 56.3 °F 30.30 in Calm   1.2 mph 92 % 0.00 in
08:05 58.8 °F 56.5 °F 30.30 in Calm     92 % 0.00 in
08:10 59.0 °F 56.7 °F 30.30 in Calm     92 % 0.00 in
08:15 59.2 °F 56.9 °F 30.31 in SSE 0.7 mph 2.3 mph 92 % 0.00 in
08:20 59.4 °F 57.1 °F 30.31 in SSE 0.1 mph 1.2 mph 92 % 0.00 in
08:26 59.6 °F 57.2 °F 30.31 in Calm   4.0 mph 92 % 0.00 in
08:31 59.9 °F 57.3 °F 30.31 in SE 1.0 mph 2.0 mph 91 % 0.00 in
08:36 60.1 °F 57.5 °F 30.31 in SE 1.0 mph 5.0 mph 91 % 0.00 in
08:41 60.3 °F 57.7 °F 30.31 in Calm   1.0 mph 91 % 0.00 in
08:46 60.8 °F 57.6 °F 30.31 in SE 1.0 mph 5.0 mph 89 % 0.00 in
08:51 61.2 °F 57.6 °F 30.31 in SE 1.0 mph 3.0 mph 88 % 0.00 in
08:56 61.6 °F 58.0 °F 30.31 in SE 1.0 mph 3.0 mph 88 % 0.00 in
09:01 61.9 °F 57.7 °F 30.31 in Calm   2.3 mph 86 % 0.00 in
09:06 62.4 °F 57.5 °F 30.31 in SE 0.5 mph 3.5 mph 84 % 0.00 in
09:11 62.7 °F 57.5 °F 30.31 in SSE 0.3 mph 1.2 mph 83 % 0.00 in
09:16 63.2 °F 58.3 °F 30.32 in East 0.5 mph 1.2 mph 84 % 0.00 in
09:21 63.5 °F 57.9 °F 30.32 in East 0.1 mph 1.2 mph 82 % 0.00 in
09:26 63.7 °F 57.8 °F 30.32 in Calm   1.2 mph 81 % 0.00 in
09:31 64.0 °F 58.1 °F 30.32 in Calm     81 % 0.00 in
09:36 64.2 °F 57.9 °F 30.32 in Calm     80 % 0.00 in
09:41 64.4 °F 58.1 °F 30.32 in NE 1.7 mph 4.0 mph 80 % 0.00 in
09:46 64.7 °F 57.3 °F 30.32 in ENE 1.8 mph 3.5 mph 77 % 0.00 in
09:51 64.9 °F 57.9 °F 30.32 in ENE 2.6 mph 3.5 mph 78 % 0.00 in
09:57 65.3 °F 57.9 °F 30.32 in ENE 0.8 mph 2.3 mph 77 % 0.00 in
10:02 65.8 °F 58.0 °F 30.32 in ENE 1.7 mph 3.5 mph 76 % 0.00 in
10:07 66.0 °F 57.8 °F 30.32 in ENE 1.5 mph 3.5 mph 75 % 0.00 in
10:12 66.3 °F 58.1 °F 30.32 in ENE 1.2 mph 2.3 mph 75 % 0.00 in
10:17 66.6 °F 58.1 °F 30.32 in ENE 1.4 mph 2.3 mph 74 % 0.00 in
10:22 66.9 °F 58.0 °F 30.33 in NE 2.4 mph 4.6 mph 73 % 0.00 in
10:27 67.2 °F 57.9 °F 30.32 in NE 1.5 mph 3.5 mph 72 % 0.00 in
10:32 67.3 °F 58.0 °F 30.32 in ENE 1.5 mph 3.5 mph 72 % 0.00 in
10:37 67.5 °F 58.5 °F 30.32 in ENE 1.9 mph 3.5 mph 73 % 0.00 in
10:42 67.6 °F 58.2 °F 30.32 in NE 0.5 mph 3.5 mph 72 % 0.00 in
10:48 68.0 °F 58.6 °F 30.32 in NE 1.0 mph 2.3 mph 72 % 0.00 in
10:53 68.2 °F 58.0 °F 30.32 in NE 1.4 mph 5.0 mph 70 % 0.00 in
10:58 68.2 °F 58.0 °F 30.32 in ENE 2.0 mph 5.8 mph 70 % 0.00 in
11:03 68.3 °F 57.7 °F 30.32 in NE 2.5 mph 3.5 mph 69 % 0.00 in
11:08 68.4 °F 57.8 °F 30.32 in NE 2.3 mph 5.0 mph 69 % 0.00 in
11:13 68.8 °F 58.2 °F 30.32 in NE 1.9 mph 3.5 mph 69 % 0.00 in
11:18 69.9 °F 58.4 °F 30.33 in ENE 2.0 mph 3.5 mph 67 % 0.00 in
11:23 70.9 °F 58.5 °F 30.32 in NE 2.9 mph 5.0 mph 65 % 0.00 in
11:28 71.6 °F 58.3 °F 30.32 in ENE 1.7 mph 6.9 mph 63 % 0.00 in
11:33 72.5 °F 58.7 °F 30.32 in ENE 2.4 mph 3.0 mph 62 % 0.00 in
11:39 73.6 °F 57.9 °F 30.31 in Calm   2.3 mph 58 % 0.00 in
11:44 74.6 °F 59.3 °F 30.31 in ENE 1.5 mph 4.0 mph 59 % 0.00 in
11:49 75.5 °F 59.7 °F 30.31 in NNE 1.2 mph 3.5 mph 58 % 0.00 in
11:54 76.1 °F 59.8 °F 30.31 in NE 0.2 mph 1.0 mph 57 % 0.00 in
11:59 76.6 °F 59.2 °F 30.31 in ENE 3.5 mph 5.0 mph 55 % 0.00 in
12:04 76.7 °F 59.3 °F 30.31 in ENE 1.7 mph 3.5 mph 55 % 0.00 in
12:09 76.9 °F 59.0 °F 30.31 in NE 1.4 mph 3.5 mph 54 % 0.00 in
12:14 77.1 °F 59.7 °F 30.31 in NE 1.4 mph 2.3 mph 55 % 0.00 in
12:20 77.3 °F 59.4 °F 30.31 in ENE 2.1 mph 4.6 mph 54 % 0.00 in
12:25 77.1 °F 59.7 °F 30.31 in NE 1.1 mph 3.5 mph 55 % 0.00 in
12:30 76.9 °F 59.5 °F 30.31 in NE 1.9 mph 3.5 mph 55 % 0.00 in
12:35 76.9 °F 57.9 °F 30.30 in NE 1.6 mph 4.6 mph 52 % 0.00 in
12:40 76.9 °F 58.5 °F 30.30 in ENE 3.1 mph 5.0 mph 53 % 0.00 in
12:45 76.7 °F 59.3 °F 30.30 in ENE 0.9 mph 2.3 mph 55 % 0.00 in
12:50 76.9 °F 59.0 °F 30.30 in ENE 0.7 mph 2.0 mph 54 % 0.00 in
12:55 77.0 °F 58.0 °F 30.30 in ENE 1.3 mph 3.5 mph 52 % 0.00 in
13:00 77.0 °F 59.1 °F 30.30 in ENE 1.7 mph 2.3 mph 54 % 0.00 in
13:05 77.2 °F 57.7 °F 30.30 in ENE 1.9 mph 3.5 mph 51 % 0.00 in
13:10 77.0 °F 58.0 °F 30.30 in ENE 5.0 mph 8.0 mph 52 % 0.00 in
13:16 77.1 °F 59.2 °F 30.30 in NE 2.0 mph 5.0 mph 54 % 0.00 in
13:20 77.2 °F 58.8 °F 30.30 in NE 3.0 mph 7.0 mph 53 % 0.00 in
13:26 77.1 °F 58.6 °F 30.30 in ENE 3.0 mph 7.0 mph 53 % 0.00 in
13:30 76.4 °F 57.5 °F 30.30 in NE 5.0 mph 9.0 mph 52 % 0.00 in
13:35 76.1 °F 57.2 °F 30.29 in NE 3.0 mph 6.0 mph 52 % 0.00 in
13:40 75.8 °F 58.0 °F 30.29 in ENE 2.0 mph 7.0 mph 54 % 0.00 in
13:45 75.6 °F 57.8 °F 30.29 in ENE 3.0 mph 8.0 mph 54 % 0.00 in
13:50 75.8 °F 59.0 °F 30.29 in ENE 3.0 mph 7.0 mph 56 % 0.00 in
13:55 76.1 °F 58.2 °F 30.28 in ENE 1.0 mph 5.0 mph 54 % 0.00 in
14:01 76.2 °F 57.8 °F 30.27 in ENE 1.9 mph 3.5 mph 53 % 0.00 in
14:05 76.4 °F 58.5 °F 30.27 in ENE 3.0 mph 7.0 mph 54 % 0.00 in
14:10 76.4 °F 58.5 °F 30.27 in NE 1.0 mph 7.0 mph 54 % 0.00 in
14:15 76.6 °F 58.2 °F 30.27 in NE 2.0 mph 5.0 mph 53 % 0.00 in
14:20 76.3 °F 58.4 °F 30.27 in ENE 3.0 mph 7.0 mph 54 % 0.00 in
14:25 76.0 °F 58.2 °F 30.27 in ENE 3.0 mph 7.0 mph 54 % 0.00 in
14:30 75.9 °F 58.6 °F 30.26 in ENE 2.0 mph 8.0 mph 55 % 0.00 in
14:35 75.7 °F 57.9 °F 30.27 in ENE 3.0 mph 8.0 mph 54 % 0.00 in
14:40 75.5 °F 59.2 °F 30.27 in ENE 1.0 mph 5.0 mph 57 % 0.00 in
14:45 75.7 °F 58.9 °F 30.27 in ENE 2.0 mph 5.0 mph 56 % 0.00 in
14:50 76.0 °F 59.2 °F 30.27 in NE 2.0 mph 4.0 mph 56 % 0.00 in
14:55 76.2 °F 59.3 °F 30.27 in NE 1.0 mph 5.0 mph 56 % 0.00 in
15:01 75.7 °F 57.9 °F 30.27 in NE 2.2 mph 4.6 mph 54 % 0.00 in
15:05 75.0 °F 58.3 °F 30.26 in ENE 1.0 mph 8.0 mph 56 % 0.00 in
15:10 74.4 °F 58.1 °F 30.26 in ENE 2.0 mph 5.0 mph 57 % 0.00 in
15:20 73.4 °F 57.7 °F 30.26 in NE 1.6 mph 3.5 mph 58 % 0.00 in
15:31 73.4 °F 58.2 °F 30.26 in NE 1.0 mph 6.0 mph 59 % 0.00 in
15:36 73.2 °F 58.0 °F 30.26 in ENE 2.0 mph 7.0 mph 59 % 0.00 in
15:41 73.0 °F 57.8 °F 30.26 in Calm   1.0 mph 59 % 0.00 in
15:46 72.8 °F 58.6 °F 30.25 in Calm   2.0 mph 61 % 0.00 in
15:51 72.6 °F 58.8 °F 30.25 in Calm   1.0 mph 62 % 0.00 in
15:56 72.3 °F 58.5 °F 30.25 in Calm   1.0 mph 62 % 0.00 in
16:01 71.9 °F 58.2 °F 30.25 in Calm   1.2 mph 62 % 0.00 in
16:06 71.7 °F 58.0 °F 30.25 in East 1.0 mph 2.0 mph 62 % 0.00 in
16:11 71.7 °F 57.1 °F 30.25 in Calm   1.0 mph 60 % 0.00 in
16:16 71.8 °F 56.7 °F 30.25 in Calm   1.0 mph 59 % 0.00 in
16:21 71.8 °F 56.7 °F 30.25 in SE 3.0 mph 8.0 mph 59 % 0.00 in
16:26 71.9 °F 57.3 °F 30.24 in Calm   4.0 mph 60 % 0.00 in
16:31 72.2 °F 56.1 °F 30.24 in SSE 3.0 mph 10.0 mph 57 % 0.00 in
16:36 72.2 °F 57.1 °F 30.24 in SE 2.0 mph 4.0 mph 59 % 0.00 in
16:41 72.4 °F 57.7 °F 30.24 in ESE 0.9 mph 2.3 mph 60 % 0.00 in
16:46 72.5 °F 57.4 °F 30.24 in SE 1.1 mph 3.5 mph 59 % 0.00 in
16:51 72.3 °F 57.2 °F 30.24 in SSW 3.9 mph 8.1 mph 59 % 0.00 in
16:56 71.9 °F 56.8 °F 30.24 in SE 3.0 mph 4.6 mph 59 % 0.00 in
17:01 71.6 °F 57.0 °F 30.24 in SE 3.0 mph 6.9 mph 60 % 0.00 in
17:06 71.3 °F 56.7 °F 30.24 in SE 2.6 mph 5.8 mph 60 % 0.00 in
17:11 71.1 °F 57.0 °F 30.24 in SE 0.7 mph 1.2 mph 61 % 0.00 in
17:16 70.8 °F 57.1 °F 30.23 in SSE 2.6 mph 6.9 mph 62 % 0.00 in
17:21 70.3 °F 56.7 °F 30.23 in SE 1.1 mph 8.1 mph 62 % 0.00 in
17:26 70.0 °F 56.4 °F 30.23 in SSE 0.9 mph 3.5 mph 62 % 0.00 in
17:32 69.8 °F 56.6 °F 30.23 in SE 3.0 mph 10.4 mph 63 % 0.00 in
17:37 69.5 °F 56.3 °F 30.23 in SSE 3.0 mph 9.2 mph 63 % 0.00 in
17:42 69.2 °F 56.5 °F 30.23 in SE 3.9 mph 11.5 mph 64 % 0.00 in
17:47 68.8 °F 56.1 °F 30.23 in SE 4.0 mph 11.5 mph 64 % 0.00 in
17:52 68.5 °F 56.3 °F 30.23 in SE 3.2 mph 8.1 mph 65 % 0.00 in
17:57 68.3 °F 56.1 °F 30.23 in SSE 4.3 mph 11.5 mph 65 % 0.00 in
18:02 68.2 °F 56.8 °F 30.23 in SE 0.2 mph 2.3 mph 67 % 0.00 in
18:07 68.1 °F 56.7 °F 30.23 in ESE 3.4 mph 8.1 mph 67 % 0.00 in
18:12 67.8 °F 56.0 °F 30.23 in SE 6.4 mph 11.5 mph 66 % 0.00 in
18:17 67.5 °F 55.7 °F 30.24 in ESE 2.9 mph 8.1 mph 66 % 0.00 in
18:22 67.3 °F 55.5 °F 30.24 in SE 5.3 mph 6.9 mph 66 % 0.00 in
18:28 67.2 °F 55.5 °F 30.24 in SSE 2.0 mph 6.0 mph 66 % 0.00 in
18:33 66.9 °F 55.2 °F 30.24 in SE 3.8 mph 8.1 mph 66 % 0.00 in
18:38 66.6 °F 54.9 °F 30.24 in SE 1.5 mph 3.5 mph 66 % 0.00 in
18:43 66.4 °F 54.7 °F 30.24 in SSE 2.1 mph 3.5 mph 66 % 0.00 in
18:53 66.0 °F 54.7 °F 30.24 in SE 2.5 mph 5.8 mph 67 % 0.00 in
18:58 65.8 °F 54.5 °F 30.24 in SSE 2.7 mph 3.5 mph 67 % 0.00 in
19:03 65.6 °F 54.8 °F 30.24 in SE 0.2 mph 2.3 mph 68 % 0.00 in
19:08 65.3 °F 54.5 °F 30.25 in SE 1.7 mph 4.6 mph 68 % 0.00 in
19:13 65.0 °F 54.2 °F 30.24 in SE 1.6 mph 4.6 mph 68 % 0.00 in
19:19 64.8 °F 54.4 °F 30.24 in SE 1.9 mph 3.5 mph 69 % 0.00 in
19:24 64.6 °F 54.2 °F 30.25 in SE 1.8 mph 2.3 mph 69 % 0.00 in
19:29 64.3 °F 54.3 °F 30.25 in SE 0.6 mph 2.3 mph 70 % 0.00 in
19:34 64.0 °F 54.0 °F 30.25 in SE 0.8 mph 2.3 mph 70 % 0.00 in
19:39 63.9 °F 54.3 °F 30.25 in Calm     71 % 0.00 in
19:44 63.7 °F 54.1 °F 30.25 in SE 0.7 mph 3.0 mph 71 % 0.00 in
19:49 63.5 °F 53.9 °F 30.25 in SE 0.6 mph 1.2 mph 71 % 0.00 in
19:59 63.1 °F 53.9 °F 30.25 in SE 1.5 mph 3.5 mph 72 % 0.00 in
20:04 63.0 °F 53.8 °F 30.25 in SSE 0.9 mph 4.6 mph 72 % 0.00 in
20:10 62.8 °F 53.6 °F 30.25 in SSE 2.2 mph 2.3 mph 72 % 0.00 in
20:15 62.7 °F 53.9 °F 30.25 in SE 2.4 mph 3.5 mph 73 % 0.00 in
20:20 62.5 °F 53.7 °F 30.25 in SSE 1.9 mph 3.5 mph 73 % 0.00 in
20:25 62.5 °F 53.7 °F 30.25 in SE 1.0 mph 3.5 mph 73 % 0.00 in
20:30 62.4 °F 54.0 °F 30.26 in SE 0.9 mph 4.0 mph 74 % 0.00 in
20:35 62.3 °F 53.9 °F 30.26 in SSE 1.1 mph 3.5 mph 74 % 0.00 in
20:40 62.1 °F 53.7 °F 30.26 in SE 1.4 mph 3.5 mph 74 % 0.00 in
20:45 62.0 °F 54.0 °F 30.26 in SSE 1.3 mph 3.5 mph 75 % 0.00 in
20:48 62.0 °F 54.0 °F 30.26 in SSE 1.5 mph 3.5 mph 75 % 0.00 in
20:53 61.9 °F 53.9 °F 30.26 in SE 0.6 mph 2.3 mph 75 % 0.00 in
20:58 61.8 °F 53.8 °F 30.26 in SSE 1.1 mph 3.5 mph 75 % 0.00 in
21:03 61.7 °F 53.7 °F 30.26 in SSE 0.4 mph 1.2 mph 75 % 0.00 in
21:08 61.6 °F 53.6 °F 30.26 in SSE 0.2 mph 1.2 mph 75 % 0.00 in
21:13 61.5 °F 53.9 °F 30.26 in SSE 0.3 mph 1.2 mph 76 % 0.00 in
21:18 61.4 °F 53.8 °F 30.27 in Calm   1.2 mph 76 % 0.00 in
21:23 61.2 °F 53.6 °F 30.27 in SSE 0.2 mph 1.2 mph 76 % 0.00 in
21:28 61.1 °F 53.5 °F 30.27 in SSE 0.1 mph   76 % 0.00 in
21:34 61.0 °F 53.7 °F 30.28 in SSE 0.2 mph 2.3 mph 77 % 0.00 in
21:39 60.9 °F 53.6 °F 30.27 in Calm   1.2 mph 77 % 0.00 in
21:49 60.6 °F 53.7 °F 30.27 in SSE 0.2 mph 1.2 mph 78 % 0.00 in
21:54 60.4 °F 53.9 °F 30.27 in SSE 0.2 mph 1.2 mph 79 % 0.00 in
21:59 60.3 °F 53.8 °F 30.27 in SSE 1.1 mph 3.5 mph 79 % 0.00 in
22:04 60.3 °F 53.8 °F 30.27 in Calm     79 % 0.00 in
22:09 60.2 °F 53.7 °F 30.27 in Calm     79 % 0.00 in
22:14 60.2 °F 53.7 °F 30.27 in Calm   1.2 mph 79 % 0.00 in
22:19 60.2 °F 53.7 °F 30.27 in SSE 0.1 mph 1.2 mph 79 % 0.00 in
22:24 60.1 °F 53.6 °F 30.27 in SSE 0.1 mph 1.2 mph 79 % 0.00 in
22:30 59.9 °F 53.4 °F 30.27 in Calm   1.0 mph 79 % 0.00 in
22:35 59.8 °F 53.6 °F 30.27 in SSE 0.1 mph 1.2 mph 80 % 0.00 in
22:40 59.6 °F 53.4 °F 30.27 in Calm   1.2 mph 80 % 0.00 in
22:45 59.4 °F 53.2 °F 30.27 in Calm   1.2 mph 80 % 0.00 in
22:50 59.2 °F 53.4 °F 30.26 in Calm   1.2 mph 81 % 0.00 in
22:55 59.1 °F 53.3 °F 30.27 in SSE 0.1 mph 1.2 mph 81 % 0.00 in
23:05 58.7 °F 53.2 °F 30.27 in Calm     82 % 0.00 in
23:10 58.5 °F 53.0 °F 30.27 in SSE 0.1 mph 1.2 mph 82 % 0.00 in
23:15 58.3 °F 53.2 °F 30.27 in Calm   1.2 mph 83 % 0.00 in
23:21 58.2 °F 53.1 °F 30.27 in Calm     83 % 0.00 in
23:26 58.0 °F 53.2 °F 30.27 in Calm   1.0 mph 84 % 0.00 in
23:31 57.9 °F 53.1 °F 30.27 in Calm   1.0 mph 84 % 0.00 in
23:36 57.7 °F 52.9 °F 30.27 in Calm     84 % 0.00 in
23:46 57.5 °F 53.0 °F 30.27 in Calm     85 % 0.00 in
23:51 57.4 °F 52.9 °F 30.27 in Calm     85 % 0.00 in
23:56 57.3 °F 52.8 °F 30.27 in Calm     85 % 0.00 in
Crab Meadow Weather
Compliments of Weather Underground - 2.75 mb

Script developed by  Jim McMurry - jmcmurry@mwt.net Adapted for the template by  Wim van der Kuil - Leuven-Template.eu

Weather Terms: Dense Fog Advisory - Widespread dense fog reducing visibility to less than 1/4 mile.